Location: Caltech
(34.1382°N, 118.1253°W)
Time: 00:48:36
(UTC-07:00)

Cosmos 1606 - Visible Passes

Search period start: 01 August 2015 00:00
Search period end: 11 August 2015 00:00
Orbit: 511 x 539 km, 82.5° (Epoch: 01 August)

Date Brightness Start Highest point End Pass type
(mag) Time Alt. Az. Time Alt. Az. Time Alt. Az.
01 Aug 5.2 21:36:45 10° NW 21:39:37 20° W 21:42:23 10° SW visible
02 Aug 5.0 21:24:35 10° NW 21:27:38 22° W 21:30:37 10° SW visible
03 Aug 4.9 21:12:25 10° NW 21:15:38 25° W 21:18:47 10° SSW visible
04 Aug 4.7 21:00:17 10° NNW 21:03:38 29° W 21:06:56 10° SSW visible
05 Aug 4.5 20:48:10 10° NNW 20:51:38 33° W 20:55:04 10° SSW visible
06 Aug 4.3 20:36:03 10° NNW 20:39:37 37° W 20:43:10 10° SSW visible
07 Aug 4.0 20:23:57 10° NNW 20:27:36 43° W 20:31:15 10° SSW visible
08 Aug 3.8 20:11:52 10° NNW 20:15:36 49° W 20:19:19 10° S visible
